Temp
13 13 13 13 14 14 14 14 14 14 14 15 15 15 15 15 16 16 16 16 17 17 17 17 17 17 16 16 15 15 15 16 16 16 16 16 16 16 14 15 15 13 14 13 13 12 12
13 13 13 13 14 14 14 14 15 15 15 15 15 15 15 15 16 16 16 16 17 17 17 17 17 17 17 14 15 15 15 15 15 16 16 16 15 15 15 14 13 14 14 13 13 12 12
12 13 13 13 14 14 14 14 15 15 15 15 16 16 16 16 16 16 16 16 17 17 17 17 17 17 17 15 15 15 15 15 15 15 15 15 15 16 15 13 14 14 13 12 12 12 12
12 12 13 13 14 14 14 14 15 15 15 16 16 16 16 16 16 16 16 16 17 17 17 17 16 17 15 15 15 15 15 15 15 15 15 15 15 15 14 14 14 13 12 11 12 12 11
12 12 13 13 13 14 14 14 15 15 15 16 16 16 16 16 17 17 17 17 17 17 16 17 16 16 15 15 15 15 15 15 16 15 15 15 15 15 14 11 10 9 11 12 12 12 10
12 12 13 13 13 14 14 15 15 15 15 16 16 16 17 16 17 17 17 17 17 17 17 16 16 16 15 15 15 15 15 15 15 15 15 15 15 10 8 8 9 10 10 11 11 12 11
12 12 13 13 13 13 14 15 15 15 16 16 16 16 17 16 17 17 17 17 16 16 16 15 15 15 15 15 15 15 15 16 15 15 13 15 9 10 11 12 12 11 11 10 11 12 11
12 12 12 13 13 13 14 15 15 15 16 16 16 17 17 16 16 17 16 17 16 15 15 15 15 15 15 15 15 15 15 15 15 13 13 10 11 12 12 12 12 11 11 10 10 12 11
12 12 12 12 13 13 14 15 15 15 15 16 16 16 17 16 16 16 16 16 15 15 15 15 15 15 14 15 14 14 15 14 14 12 11 11 13 13 13 12 11 11 11 10 10 9 10
11 12 12 12 12 13 14 14 15 15 15 15 16 16 16 16 16 15 15 15 15 15 11 14 15 15 15 14 14 14 14 14 14 13 12 12 13 13 12 12 11 9 11 11 10 8 8
12 12 12 12 12 13 13 14 15 15 15 15 16 16 16 16 15 15 14 14 15 15 11 15 15 15 15 15 14 14 14 14 12 12 12 13 12 11 12 12 12 10 10 9 10 9 8
11 12 12 12 12 12 13 14 15 15 15 15 16 16 15 16 15 14 14 14 15 12 10 14 15 14 14 15 15 15 15 14 13 12 13 13 12 12 11 11 11 11 10 9 8 7 7
11 11 12 12 12 12 13 14 14 14 15 15 16 16 15 15 15 15 15 15 11 11 15 14 13 13 13 13 14 14 12 10 9 10 9 11 12 11 12 11 10 8 7 7 8 7 9
11 11 11 12 12 12 12 13 14 14 15 15 16 16 15 15 15 15 15 12 14 15 14 14 13 13 13 13 13 13 13 10 10 10 9 9 9 12 12 11 10 9 8 7 9 8 8
11 11 11 11 11 12 12 13 14 14 14 15 16 16 16 15 15 15 15 10 12 13 13 12 13 13 13 13 13 13 12 10 10 10 10 8 10 11 11 11 10 10 7 9 8 7 6
11 11 11 11 11 12 12 13 13 14 14 15 15 15 15 15 16 15 11 12 12 12 12 12 13 13 13 12 12 11 12 12 11 11 11 10 8 11 10 10 10 10 9 8 6 8 8
11 11 11 11 11 12 12 12 13 13 14 14 15 15 15 15 15 16 10 11 12 12 12 12 12 13 12 12 12 12 13 12 12 11 11 11 9 9 11 9 9 8 8 9 8 6 7
11 11 11 11 11 11 11 12 13 13 13 14 14 13 15 15 15 12 10 12 12 12 12 12 12 12 12 12 11 12 12 12 12 11 10 9 7 6 8 8 9 10 10 8 6 8 6
11 11 11 10 11 11 11 11 12 12 13 13 13 14 14 15 11 9 11 11 12 11 12 11 12 12 12 11 11 11 12 11 12 11 10 9 7 6 8 9 9 9 9 9 8 8 7
10 11 11 10 10 10 11 11 11 11 12 12 12 9 14 14 13 11 12 12 11 11 11 12 11 11 11 11 10 10 12 10 11 11 10 10 7 8 8 8 8 7 8 8 9 6 7
12 11 11 10 10 9 10 10 11 11 11 11 12 11 11 10 11 12 12 12 11 11 10 11 10 10 10 10 11 9 10 11 9 10 9 8 6 6 8 9 8 8 8 8 6 7 7
11 11 11 10 10 9 9 10 10 10 10 11 11 11 11 11 11 11 10 10 11 11 10 9 9 10 9 9 10 10 10 10 9 7 6 7 6 6 5 7 8 7 7 7 7 7 8
8 10 10 10 9 9 9 9 9 9 9 9 9 10 10 10 10 9 9 10 10 12 12 12 10 10 9 9 11 10 10 9 10 7 6 6 6 5 7 7 7 7 7 7 7 7 8
8 8 9 10 9 9 9 9 9 8 9 9 9 9 9 8 8 8 11 11 10 10 11 11 11 9 10 10 10 10 10 9 7 7 8 6 5 4 5 6 6 8 8 8 7 7 6
8 8 8 8 9 9 8 8 8 8 8 8 8 8 9 6 9 10 11 10 11 11 10 10 11 10 10 9 7 6 6 7 5 3 5 8 6 4 5 6 7 7 7 8 8 5 2
8 8 8 8 8 8 7 7 8 8 8 8 8 7 7 7 7 10 11 11 8 7 8 10 9 9 9 8 6 7 5 7 7 5 3 4 5 6 5 5 6 7 6 5 5 4 1
7 8 8 8 8 8 7 7 7 7 7 8 8 7 6 6 9 10 9 9 11 10 8 8 8 7 7 6 5 6 5 7 6 6 3 2 2 5 5 6 5 5 5 5 5 5 -1
7 7 7 7 8 7 7 7 6 6 6 6 7 6 6 6 7 9 9 9 10 10 8 8 8 6 5 5 5 5 5 6 5 6 4 4 3 4 4 4 5 5 4 4 1 -1 -2
6 7 7 7 7 7 7 7 7 7 6 6 4 6 5 5 6 6 7 8 8 7 8 8 8 7 7 5 5 5 5 4 5 5 6 6 7 5 5 5 2 1 1 -2 -2 -2 -4
Height
1584 1584 1583 1581 1580 1578 1575 1572 1568 1565 1561 1558 1555 1552 1549 1545 1540 1539 1540 1540 1540 1540 1541 1542 1543 1543 1543 1544 1547 1544 1542 1540 1539 1537 1535 1534 1533 1532 1535 1536 1536 1539 1541 1540 1541 1541 1541
1586 1586 1584 1583 1581 1579 1576 1573 1569 1565 1562 1559 1556 1553 1549 1546 1543 1542 1541 1542 1542 1542 1543 1544 1545 1545 1545 1547 1547 1545 1542 1541 1539 1538 1537 1535 1535 1535 1536 1537 1538 1539 1538 1539 1540 1543 1543
1588 1587 1586 1585 1582 1580 1577 1574 1570 1566 1562 1559 1556 1553 1550 1548 1545 1544 1544 1544 1544 1545 1545 1546 1546 1547 1547 1551 1547 1545 1543 1541 1540 1538 1538 1537 1536 1536 1538 1539 1539 1538 1540 1540 1539 1541 1541
1590 1589 1588 1586 1583 1581 1577 1574 1570 1566 1563 1559 1556 1554 1551 1549 1547 1546 1545 1546 1546 1547 1548 1548 1548 1547 1549 1550 1548 1546 1543 1541 1540 1540 1539 1539 1538 1539 1539 1540 1539 1540 1541 1546 1536 1536 1537
1591 1590 1589 1587 1584 1581 1578 1574 1570 1567 1563 1560 1557 1555 1553 1551 1549 1548 1548 1548 1548 1549 1549 1549 1549 1548 1551 1551 1549 1546 1543 1542 1541 1540 1540 1539 1539 1540 1541 1542 1548 1549 1552 1545 1539 1534 1538
1593 1592 1590 1588 1585 1582 1578 1574 1571 1567 1564 1561 1559 1556 1554 1552 1551 1551 1550 1550 1550 1550 1550 1550 1550 1553 1553 1552 1549 1547 1544 1543 1542 1541 1540 1540 1540 1544 1547 1551 1566 1556 1553 1546 1545 1537 1536
1593 1592 1590 1588 1585 1582 1578 1575 1571 1568 1565 1562 1560 1557 1555 1553 1552 1552 1551 1551 1554 1553 1551 1553 1555 1554 1553 1552 1550 1548 1545 1544 1542 1542 1544 1542 1551 1557 1552 1549 1548 1550 1550 1551 1541 1537 1537
1594 1593 1591 1588 1586 1582 1579 1575 1572 1569 1566 1563 1561 1558 1556 1554 1553 1551 1551 1551 1551 1554 1556 1556 1556 1555 1554 1552 1551 1549 1546 1545 1544 1546 1543 1548 1555 1549 1547 1546 1547 1546 1547 1550 1541 1535 1537
1594 1593 1591 1589 1587 1583 1579 1575 1572 1569 1567 1563 1561 1559 1556 1555 1554 1552 1550 1550 1552 1553 1555 1558 1557 1556 1555 1554 1552 1551 1549 1547 1547 1548 1549 1552 1551 1548 1547 1548 1549 1548 1547 1548 1548 1540 1531
1595 1593 1592 1590 1587 1583 1579 1576 1573 1570 1567 1564 1561 1559 1557 1555 1556 1552 1552 1552 1553 1554 1563 1563 1559 1558 1556 1553 1554 1553 1551 1551 1548 1552 1550 1551 1548 1548 1548 1549 1550 1553 1542 1543 1544 1547 1551
1595 1594 1592 1589 1587 1584 1580 1576 1573 1571 1568 1565 1562 1560 1558 1556 1555 1553 1553 1551 1552 1555 1588 1563 1560 1558 1556 1557 1558 1555 1553 1550 1552 1551 1552 1553 1551 1551 1551 1549 1548 1548 1540 1541 1541 1545 1546
1595 1593 1591 1589 1587 1583 1580 1576 1573 1571 1568 1566 1563 1561 1559 1557 1555 1553 1552 1552 1554 1566 1592 1565 1561 1560 1558 1557 1557 1555 1554 1552 1552 1551 1550 1551 1551 1550 1549 1546 1544 1543 1540 1538 1540 1549 1556
1594 1592 1591 1588 1586 1583 1580 1576 1573 1571 1569 1566 1563 1561 1559 1557 1555 1553 1552 1553 1566 1578 1564 1567 1565 1562 1562 1561 1557 1555 1558 1561 1564 1564 1565 1555 1551 1550 1549 1549 1545 1548 1552 1561 1557 1557 1549
1593 1592 1590 1588 1585 1583 1579 1576 1573 1571 1568 1566 1563 1561 1559 1557 1554 1553 1553 1555 1570 1565 1567 1564 1563 1562 1563 1562 1559 1558 1559 1566 1563 1563 1569 1570 1564 1551 1550 1552 1554 1553 1555 1568 1560 1560 1555
1591 1590 1589 1587 1585 1582 1579 1576 1573 1570 1568 1565 1562 1560 1558 1556 1554 1553 1554 1570 1570 1567 1567 1568 1565 1566 1565 1562 1563 1560 1562 1566 1565 1563 1567 1571 1561 1550 1550 1550 1553 1552 1561 1555 1562 1560 1562
1589 1588 1586 1585 1584 1581 1578 1575 1572 1570 1567 1564 1562 1559 1557 1555 1554 1553 1555 1567 1568 1567 1567 1567 1569 1566 1569 1566 1564 1563 1560 1561 1563 1563 1563 1566 1572 1551 1550 1551 1551 1551 1554 1562 1567 1559 1557
1585 1585 1584 1584 1582 1579 1577 1574 1571 1569 1566 1564 1561 1558 1558 1556 1555 1554 1566 1567 1566 1566 1566 1568 1569 1567 1567 1565 1563 1563 1560 1562 1561 1563 1563 1563 1568 1558 1551 1553 1554 1557 1556 1556 1559 1563 1562
1581 1582 1582 1581 1580 1578 1575 1573 1571 1568 1566 1564 1561 1560 1557 1556 1557 1557 1563 1562 1564 1564 1565 1566 1566 1566 1566 1566 1566 1562 1561 1559 1560 1561 1563 1564 1567 1570 1556 1551 1549 1549 1550 1553 1564 1557 1558
1576 1578 1578 1577 1576 1575 1573 1571 1569 1568 1566 1564 1561 1559 1557 1555 1561 1564 1562 1562 1562 1564 1565 1566 1565 1565 1566 1567 1569 1562 1559 1560 1559 1560 1561 1563 1567 1569 1553 1553 1549 1550 1551 1551 1550 1550 1548
1571 1572 1573 1573 1572 1571 1570 1568 1568 1567 1565 1565 1563 1561 1557 1555 1556 1558 1560 1561 1562 1562 1562 1562 1564 1564 1565 1565 1563 1562 1559 1559 1558 1558 1559 1561 1566 1563 1563 1555 1552 1552 1549 1548 1547 1549 1540
1567 1567 1567 1567 1567 1567 1566 1565 1565 1565 1564 1565 1563 1560 1559 1559 1557 1556 1558 1558 1559 1560 1561 1560 1561 1560 1562 1563 1560 1561 1557 1556 1556 1556 1557 1559 1563 1560 1552 1547 1546 1542 1536 1534 1541 1535 1536
1561 1560 1562 1563 1562 1562 1562 1561 1561 1562 1562 1563 1562 1560 1559 1557 1556 1555 1556 1556 1556 1555 1557 1558 1558 1554 1557 1560 1555 1556 1554 1555 1554 1555 1556 1555 1556 1554 1554 1544 1539 1535 1526 1521 1522 1521 1518
1555 1555 1557 1557 1557 1557 1557 1557 1557 1559 1559 1559 1559 1558 1558 1554 1555 1557 1554 1550 1550 1551 1550 1549 1550 1552 1552 1549 1548 1549 1549 1549 1547 1548 1552 1553 1553 1554 1537 1539 1539 1528 1510 1511 1508 1508 1504
1549 1549 1551 1551 1552 1552 1552 1553 1553 1554 1556 1557 1557 1558 1557 1553 1551 1551 1548 1547 1547 1548 1549 1548 1549 1550 1548 1547 1546 1544 1541 1538 1537 1537 1539 1544 1548 1554 1541 1538 1537 1503 1499 1500 1501 1500 1502
1544 1544 1545 1546 1546 1546 1547 1547 1549 1550 1551 1553 1554 1556 1554 1551 1546 1545 1545 1546 1546 1547 1548 1547 1546 1546 1546 1546 1548 1546 1541 1534 1534 1535 1532 1533 1541 1545 1539 1530 1511 1502 1496 1499 1500 1503 1506
1537 1539 1540 1541 1542 1542 1542 1542 1543 1545 1546 1547 1550 1552 1552 1550 1545 1543 1541 1540 1543 1544 1544 1540 1541 1541 1544 1544 1547 1546 1548 1534 1533 1533 1533 1533 1533 1535 1536 1533 1520 1498 1499 1500 1502 1505 1507
1531 1532 1534 1536 1537 1537 1539 1538 1539 1540 1540 1543 1544 1546 1548 1545 1540 1540 1540 1539 1538 1538 1538 1537 1537 1539 1540 1541 1544 1544 1539 1527 1529 1525 1533 1536 1538 1529 1526 1520 1509 1498 1498 1499 1506 1501 1504
1525 1526 1527 1529 1531 1532 1533 1533 1534 1535 1536 1536 1538 1541 1542 1539 1534 1536 1533 1536 1535 1534 1533 1533 1538 1534 1536 1538 1535 1531 1528 1522 1521 1513 1518 1520 1526 1525 1525 1520 1510 1499 1500 1503 1501 1499 1502
1518 1520 1521 1522 1524 1525 1527 1526 1528 1530 1532 1532 1534 1535 1538 1537 1529 1529 1527 1528 1532 1531 1531 1530 1527 1527 1517 1522 1522 1519 1519 1516 1514 1511 1502 1509 1502 1504 1506 1500 1498 1500 1500 1500 1501 1500 1500
Wind_Speed
11 11 12 14 16 18 20 22 23 22 21 21 21 20 21 23 16 10 9 9 10 12 13 12 13 9 6 9 8 12 10 10 8 9 13 7 13 6 4 4 7 5 3 5 6 4 2
11 11 13 15 16 18 20 22 23 22 21 20 19 19 21 22 16 13 11 10 11 12 13 12 9 6 7 7 9 14 12 9 9 9 11 12 7 6 4 4 4 2 5 7 4 3 3
10 12 13 15 18 18 19 22 24 22 20 19 18 18 19 19 12 11 10 10 11 12 12 12 10 12 16 8 10 15 12 9 10 8 8 9 7 5 3 2 2 2 0 1 6 6 2
10 12 13 16 19 20 21 23 23 21 20 18 15 15 16 18 10 9 11 12 15 14 10 8 7 7 7 11 12 15 11 8 7 8 7 7 6 6 4 1 1 1 2 2 3 10 3
10 12 15 17 20 22 24 23 23 21 20 17 15 14 13 16 10 10 11 12 10 9 10 7 8 5 3 7 16 19 12 10 8 8 8 7 4 5 5 2 4 7 3 5 4 12 3
9 13 16 18 20 23 24 24 23 21 19 17 16 14 11 13 7 8 11 12 10 4 2 4 6 3 6 6 11 20 10 8 7 8 4 6 5 4 5 7 1 4 4 5 5 3 3
9 14 17 19 22 25 25 24 22 20 17 17 16 15 12 8 9 5 8 3 2 5 17 10 7 3 4 7 6 17 12 5 6 4 4 4 7 3 4 2 3 5 4 5 4 2 4
11 14 17 20 23 26 26 23 21 18 16 16 16 15 12 5 10 5 5 2 2 9 9 8 8 6 7 6 6 19 15 5 6 4 5 6 2 2 4 4 3 4 4 4 6 6 6
11 14 17 20 24 26 25 23 20 17 16 17 17 16 13 5 8 6 5 5 11 7 4 4 5 6 7 4 4 14 17 5 4 5 6 5 2 4 2 4 6 4 2 3 6 7 4
11 14 17 20 24 27 27 23 20 17 17 18 18 17 14 6 3 9 5 6 7 2 4 7 3 5 8 5 2 12 14 6 4 4 3 3 1 3 4 1 3 5 3 2 5 5 3
11 13 16 20 23 26 27 23 19 17 17 18 18 16 12 11 7 8 5 5 6 3 4 4 4 5 6 5 7 12 9 5 2 4 4 4 2 3 2 2 1 8 8 8 4 1 3
12 14 16 20 22 25 26 22 19 17 17 17 17 15 12 12 10 8 3 6 6 5 2 4 3 6 3 5 3 8 7 7 2 2 1 2 1 1 2 5 4 6 6 5 3 3 2
14 16 17 20 21 23 25 23 18 16 16 16 16 13 11 14 11 7 4 4 5 5 1 3 3 4 4 4 4 4 4 7 4 6 6 5 1 1 1 4 5 8 6 4 5 3 4
14 16 17 19 20 22 23 22 19 17 16 15 14 12 8 14 9 5 3 4 6 2 2 2 2 4 1 3 2 4 3 3 5 4 1 3 7 1 2 1 2 3 3 3 4 3 5
13 16 18 19 20 23 20 21 18 16 17 15 15 10 6 13 10 5 1 5 3 1 1 3 5 3 2 2 1 5 2 2 1 3 3 5 5 1 0 0 2 3 4 2 1 3 1
18 18 19 19 21 21 20 20 17 15 16 16 15 8 6 12 8 6 4 3 3 1 2 1 3 1 3 5 3 5 2 2 3 1 2 1 5 3 1 1 1 1 2 3 2 4 5
20 20 20 20 20 20 20 20 17 15 14 14 13 5 5 10 5 3 4 3 3 2 1 2 1 1 2 1 2 2 2 1 2 2 2 0 2 6 2 2 4 1 0 1 2 4 3
21 19 18 20 20 22 20 19 18 16 14 12 7 3 7 8 1 4 2 1 3 3 1 1 1 1 1 3 3 2 2 1 6 3 1 2 2 4 8 3 2 1 3 4 3 5 3
18 19 22 21 21 20 20 18 15 15 13 13 10 4 4 4 2 0 2 2 2 2 3 3 2 1 1 2 3 4 1 4 6 4 3 3 1 4 5 1 2 2 2 3 3 2 9
18 21 24 25 22 21 19 16 15 12 11 9 5 3 2 2 2 4 4 3 3 3 3 3 2 2 1 3 5 4 2 4 8 8 8 6 3 6 7 7 4 7 5 7 7 5 6
18 19 22 23 23 20 18 16 13 12 10 6 3 3 2 2 2 2 2 5 4 5 5 6 3 6 6 3 3 6 4 2 5 5 7 6 6 7 13 14 11 17 21 17 12 16 11
21 16 20 21 21 20 19 16 14 12 10 7 3 3 2 3 3 3 3 5 7 3 7 5 5 5 7 7 8 5 1 4 7 4 6 4 4 2 4 12 14 16 20 19 17 18 19
23 24 21 22 19 18 18 17 14 14 11 6 5 7 4 3 2 3 4 6 7 7 9 6 11 4 6 11 16 13 14 11 12 8 7 6 4 1 7 2 5 13 13 6 5 5 6
22 20 20 21 19 18 17 17 16 14 14 14 10 5 4 4 6 5 3 6 6 11 2 4 9 6 4 4 11 16 22 28 22 20 19 6 5 2 4 3 5 6 2 6 9 0 3
26 23 22 21 20 18 17 16 17 17 17 17 17 10 5 4 6 8 13 7 4 9 9 12 12 10 9 4 3 6 4 4 0 2 5 15 6 3 3 5 11 10 2 2 2 2 3
25 25 24 21 20 20 18 17 17 18 18 18 18 17 9 3 6 8 5 11 5 4 3 9 9 11 8 4 2 3 4 4 4 4 3 2 2 6 4 4 6 1 1 5 3 5 3
27 25 25 25 22 21 21 19 18 18 18 19 21 18 15 8 17 17 6 4 7 6 3 3 6 7 10 4 3 5 5 5 4 5 5 3 2 9 10 7 8 2 2 3 2 3 1
26 27 26 25 25 23 21 20 20 19 19 20 23 21 18 10 21 16 10 13 7 7 4 5 1 4 3 4 5 4 5 5 2 4 6 8 7 4 3 5 9 4 1 5 1 2 6
26 26 27 26 27 26 23 21 21 20 20 20 22 22 20 23 16 12 19 26 27 17 9 8 9 4 13 4 3 2 3 3 4 4 4 3 6 4 8 5 4 3 1 1 4 3 6
Wind_Direction
77 63 51 39 31 22 17 11 8 8 8 9 10 12 13 9 29 58 66 78 82 88 96 100 105 94 73 49 34 8 10 16 19 25 34 48 47 44 60 45 39 82 111 108 136 140 150
69 55 41 30 22 17 10 8 8 9 10 10 11 13 16 20 45 62 76 81 90 96 97 102 90 82 74 74 24 12 14 21 25 31 41 50 49 20 83 58 74 4 168 165 189 184 219
60 45 33 21 14 10 5 5 8 9 10 11 14 16 18 26 49 63 73 84 99 104 98 96 92 81 68 51 20 13 0 26 30 36 43 48 45 50 30 85 70 156 148 249 211 203 227
51 37 24 19 17 11 6 6 7 8 9 13 18 18 21 26 47 75 83 93 97 106 97 80 86 67 75 37 21 15 24 16 26 41 35 38 44 50 49 30 284 253 91 343 250 184 206
42 28 19 17 13 8 5 4 5 7 9 14 18 20 27 30 60 88 94 103 97 95 80 70 63 73 47 25 23 16 17 22 42 49 33 37 40 44 354 45 22 18 309 324 324 195 144
34 24 20 18 12 7 4 3 4 6 11 15 17 20 27 33 57 93 107 98 84 92 26 76 60 85 32 349 5 11 16 34 32 12 22 29 38 58 18 38 20 309 337 306 300 241 195
19 16 18 16 11 7 5 4 4 7 12 17 17 19 19 35 41 138 137 112 107 66 67 67 59 67 7 6 12 5 7 32 4 23 33 38 61 35 337 320 243 276 270 292 298 236 315
14 16 17 12 9 6 4 4 4 7 12 15 13 12 12 27 30 34 240 256 131 132 87 70 62 39 24 8 10 12 15 45 32 30 14 28 70 296 291 314 281 316 290 333 297 318 316
17 18 15 11 8 6 4 3 4 6 10 11 9 9 11 17 34 27 63 124 138 131 88 45 34 17 16 3 19 3 9 12 35 32 17 124 242 314 306 17 5 334 107 303 262 321 304
12 14 13 10 8 6 4 2 3 5 6 8 9 9 13 22 17 16 50 148 154 151 80 330 7 356 2 352 23 5 9 19 28 34 2 97 259 344 331 88 47 312 196 306 299 30 304
4 7 7 5 2 2 3 360 1 4 4 5 7 9 15 19 20 13 3 160 171 144 52 324 336 349 4 41 330 4 3 23 73 312 58 279 347 2 338 294 69 250 306 285 222 217 8
345 347 358 357 357 358 358 358 359 360 1 2 3 6 11 10 10 10 67 130 141 47 287 333 359 359 24 33 9 347 14 11 3 341 222 286 72 152 242 287 222 295 317 5 81 95 7
333 342 345 350 353 353 353 353 354 355 356 355 358 1 9 5 6 18 123 136 42 88 248 337 331 352 350 331 329 348 72 23 41 18 4 335 267 263 315 327 358 14 19 349 1 7 240
312 325 329 339 343 346 348 349 347 347 348 349 351 354 4 3 12 23 124 60 75 193 55 249 256 313 320 4 304 328 70 37 9 34 345 7 332 248 348 105 279 314 105 117 301 299 285
301 311 319 329 336 338 343 345 343 343 342 344 344 348 9 10 12 10 100 56 177 59 293 358 328 340 294 299 325 8 70 140 196 28 74 6 282 21 352 43 88 332 53 180 263 290 349
295 304 311 317 327 333 337 341 338 339 339 340 342 343 12 7 0 3 68 140 144 58 359 341 43 41 338 321 27 16 210 230 184 79 92 334 297 262 184 96 41 110 221 30 23 322 296
286 298 303 309 321 328 331 336 333 333 336 338 338 343 358 358 357 34 107 165 130 138 98 75 347 302 316 307 282 274 245 225 163 213 348 315 143 293 23 203 196 32 31 195 196 165 235
279 283 291 300 310 317 321 329 328 328 334 336 336 332 338 351 37 64 116 115 154 168 158 168 200 268 298 319 297 279 253 205 157 137 249 207 183 270 250 324 332 149 166 150 140 273 247
263 277 281 289 298 305 313 318 322 322 331 340 329 293 323 350 133 25 192 131 158 142 198 187 234 180 56 273 302 233 300 176 171 159 184 186 265 310 313 5 351 78 221 220 233 209 227
271 273 281 286 288 294 300 307 309 309 314 327 318 339 287 19 102 139 166 192 173 198 200 185 194 153 194 248 223 279 236 206 204 203 175 152 221 195 250 257 279 289 251 234 245 244 268
275 283 286 285 283 288 291 293 295 291 294 307 261 262 258 282 295 123 155 170 180 202 213 202 213 207 181 243 267 226 236 211 223 223 181 178 224 223 247 266 272 268 277 269 236 243 246
268 281 291 285 283 282 283 284 282 271 272 266 274 269 259 269 232 183 190 219 204 191 158 234 209 180 203 211 201 232 257 193 227 183 168 196 263 289 252 255 250 267 267 262 250 252 248
261 265 274 285 284 281 277 273 268 264 258 244 242 265 255 265 208 126 226 220 211 181 229 217 208 191 234 237 251 265 271 246 242 184 197 174 198 221 271 39 301 279 251 229 211 206 213
261 263 271 277 278 279 273 269 262 256 254 246 244 258 237 262 190 206 242 214 214 209 234 238 214 176 240 258 294 289 274 262 246 239 217 187 159 182 277 2 248 244 268 228 215 123 347
266 264 264 265 263 265 265 262 258 253 249 249 244 243 239 259 233 266 254 236 248 250 246 241 235 239 244 294 348 331 318 322 280 356 214 220 165 214 239 225 290 285 231 199 238 210 25
264 269 269 271 271 268 260 256 254 252 252 250 248 240 238 265 246 262 260 225 192 213 271 220 227 218 215 174 152 244 248 250 262 264 11 56 225 193 164 235 252 211 11 39 35 255 48
258 259 263 268 271 269 265 258 253 250 250 251 249 239 235 246 252 263 262 229 195 205 227 168 196 194 200 177 186 204 235 213 235 225 177 142 201 221 227 247 276 181 152 82 163 292 328
263 260 254 258 265 268 263 259 258 252 247 246 251 239 228 244 253 242 243 240 239 221 194 175 94 203 162 203 199 214 202 223 240 213 179 173 176 196 205 236 267 120 149 183 129 18 338
261 265 264 258 254 258 259 258 256 255 252 248 250 251 247 240 258 262 252 248 248 252 264 226 235 221 213 186 215 210 230 207 195 249 182 220 208 191 191 217 91 57 248 160 342 319 304